www.pogodaiklimat.ru
ПОГОДА в Дюссельдорфе
Время
(UTC), дата
10 6.07
11 6.07
12 6.07
14 6.07
13 6.07
15 6.07
16 6.07
17 6.07
18 6.07
20 6.07
19 6.07
21 6.07
22 6.07
23 6.07
00 7.07
02 7.07
01 7.07
03 7.07
04 7.07
05 7.07
06 7.07
08 7.07
07 7.07
09 7.07
10 7.07
11 7.07
12 7.07
14 7.07
13 7.07
15 7.07
16 7.07
17 7.07
18 7.07
20 7.07
19 7.07
21 7.07
22 7.07
23 7.07
00 8.07
02 8.07
01 8.07
03 8.07
04 8.07
05 8.07
06 8.07
08 8.07
07 8.07
09 8.07
10 8.07
11 8.07
12 8.07
14 8.07
13 8.07
15 8.07
16 8.07
17 8.07
18 8.07
20 8.07
19 8.07
21 8.07
22 8.07
23 8.07
00 9.07
02 9.07
01 9.07
03 9.07
04 9.07
05 9.07
06 9.07
08 9.07
07 9.07
09 9.07
10 9.07
11 9.07
12 9.07
14 9.07
13 9.07
15 9.07
16 9.07
17 9.07
18 9.07
20 9.07
19 9.07
21 9.07
22 9.07
23 9.07
00 10.07
02 10.07
01 10.07
03 10.07
04 10.07
05 10.07
06 10.07
08 10.07
07 10.07
09 10.07
10 10.07
11 10.07
12 10.07
14 10.07
13 10.07
15 10.07
16 10.07
17 10.07
18 10.07
20 10.07
19 10.07
21 10.07
22 10.07
23 10.07
00 11.07
02 11.07
01 11.07
03 11.07
04 11.07
05 11.07
06 11.07
08 11.07
07 11.07
09 11.07
10 11.07
11 11.07
12 11.07
14 11.07
13 11.07
15 11.07
16 11.07
17 11.07
18 11.07
20 11.07
19 11.07
21 11.07
22 11.07
23 11.07
00 12.07
02 12.07
01 12.07
03 12.07
04 12.07
05 12.07
06 12.07
08 12.07
07 12.07
09 12.07
10 12.07
11 12.07
12 12.07
14 12.07
13 12.07
15 12.07
16 12.07
17 12.07
18 12.07
20 12.07
19 12.07
21 12.07
22 12.07
23 12.07
00 13.07
02 13.07
01 13.07
03 13.07
04 13.07
05 13.07
06 13.07
08 13.07
07 13.07
Ветер
(напр.,м/с)
Видим. Явления Облачность Т
(С)
Тd
(С)
f
(%)
Тe
(С)
Тes
(С)
Комфортность P
(гПа)
Po
(гПа)
Тmin
(С)
Tmax
(С)
R
(мм)
R24
(мм)
S
(см)
З 7 35 км слаб. ливневой дождь 9/8 1050 м
[Cu Sc Ac As]
+15.2 +9.4 68 +13 +14 1015.3 1010.5
З 9 15 км в посл. час ливневой дождь 9/6 1080 м
[Cb calv Ac As]
+15.1 +11.2 78 +13 +13 1015.8 1011.0
З 8 45 км осадки на расстоянии {ливн. дождь} 8/6 1110 м
[Cb calv Ac As Ci fib]
+17.2 +8.9 58 +16 +17 1016.0 1011.2 0.5
З 5 20 км гроза без осадков {ливн. дождь} 8/6 1080 м
[Cb cap Ac cuf Ci ing]
+16.9 +10.0 64 +16 +18 1017.1 1012.3
З 8-12
{16}
45 км в посл. час ливневой дождь 8/6 1140 м
[Cb calv Ac As Ci fib]
+17.2 +9.7 61 +16 +17 1016.5 1011.7
З 7 45 км в посл. час гроза {ливн. дождь} 8/6 1260 м
[Cu Sc Ac trans]
+16.7 +9.6 63 +15 +16 1018.0 1013.2 0.0
З 7 45 км осадки на расстоянии 8/5 1440 м
[Cu Sc Ac trans Ci fib]
+18.8 +8.2 50 +19 +19 1018.4 1013.6
СЗ 6 40 км в посл. час ливневой дождь 8/5 1110 м
[Cu Sc Ac As Ci fib]
+17.1 +9.4 60 +16 +17 1019.1 1014.3
З 5 35 км в посл. час ливневой дождь {гроза} 9/8 1000 м
[Cb calv Ac As]
+14.8 +11.0 78 +13 +13 1019.8 1014.9 +14.1 +19.3 1
З 3 50 км 5/3 1080 м
[Cu Sc Ac As]
+15.1 +9.4 69 +14 +14 1020.8 1015.9
З 5-9
{9}
45 км 4/3 1080 м
[Cu Sc Ac cuf]
+15.8 +8.8 63 +15 +15 1020.2 1015.3
З 3 55 км 1/1 1350 м
[Cu Sc Ac As]
+14.2 +9.5 73 +13 +13 1021.2 1016.3
З 2-3
{4}
55 км 5/5 800 м
[Cu Sc]
+13.4 +10.1 80 +13 +13 1021.6 1016.7
З 3-4
{4}
50 км 1/1 800 м
[Cu Sc]
+12.7 +10.4 86 +11 +11 1022.1 1017.2
СЗ 2 50 км ясно +11.9 +9.7 86 +11 +11 1022.0 1017.1
ЮЗ 2-2
{2}
40 км местами туман поземный ясно +8.9 +8.7 99 +7 +7 1022.1 1017.1
З 2-3
{3}
40 км ясно +10.9 +10.2 95 +9 +9 1022.1 1017.1
ЮЗ 1-1
{3}
40 км местами туман поземный ясно +8.3 +8.1 99 +7 +7 1021.9 1016.9
ЮВ 1-1
{2}
35 км местами туман поземный 1/0
[Ac trans Ci fib]
+8.7 +8.6 99 +8 +8 1021.8 1016.8
Ю 2-2
{2}
35 км 1/0
[Ac trans Ci fib]
+11.0 +9.7 92 +10 +11 1021.8 1016.9
Ю 3 35 км 1/0
[Ac trans Ci fib]
+13.4 +10.0 80 +12 +14 1021.8 1016.9 +7.4 +16.2
Ю 4 40 км 9/1 600 м
[Cu hum Ac und]
+15.7 +10.1 69 +15 +17 1021.4 1016.5
Ю 4 35 км 6/1 480 м
[Cu hum Ac und Ci fib]
+14.6 +10.2 75 +13 +16 1021.5 1016.6
Ю 4 40 км 9/4 660 м
[Cu Sc Ac As]
+16.1 +9.6 65 +15 +17 1021.3 1016.4
ЮЗ 5 45 км 9/6 960 м
[Cu Sc Ac trans Ci fib]
+17.9 +9.8 59 +18 +20 1020.6 1015.8
ЮЗ 7 45 км 9/3 1170 м
[Cu med, cong Ac trans Ci fib]
+19.3 +9.8 54 +20 +22 1020.0 1015.2
ЮЗ 6 45 км 9/6 1320 м
[Cu Sc Ac As]
+18.9 +8.7 52 +19 +20 1019.5 1014.7
З 5 45 км 9/8 1440 м
[Cu Sc Ac As]
+18.4 +9.5 56 +18 +19 1019.4 1014.6
З 5 45 км в посл. час ливневой дождь 9/6 1440 м
[Cu Sc Ac As]
+18.7 +9.6 55 +19 +20 1019.5 1014.7
З 5 45 км {ливн. дождь} 8/6 1440 м
[Cu Sc Ac trans Ci fib]
+20.1 +9.6 51 +21 +23 комфорт 1018.9 1014.1 0.0
З 5 45 км 8/5 1500 м
[Cu Sc Ac trans Ci fib]
+19.7 +8.9 50 +21 +22 комфорт 1018.5 1013.7
З 6 50 км 9/6 1500 м
[Cu Sc Ac As Ci sp]
+19.4 +7.7 47 +20 +20 1018.3 1013.5
СЗ 4 50 км {ливн. дождь} 9/4 1500 м
[Cu Sc Ac As]
+19.0 +8.1 49 +20 +20 1018.1 1013.3 +13.5 +21.0
З 1 50 км 10/6 1500 м
[Sc As op]
+17.6 +9.1 57 +19 +19 1017.7 1012.9
СЗ 3 50 км 9/4 2000 м
[Sc Ac lent]
+18.2 +8.2 52 +19 +19 1017.8 1013.0
З 2 50 км в посл. час дождь 10/5 1020 м
[Sc As op]
+16.8 +9.7 63 +17 +17 1017.6 1012.8 0.0
С 1 50 км в посл. час дождь 10/6 1500 м
[Sc As op]
+15.9 +10.3 69 +17 +17 1017.3 1012.5
СВ 1 50 км в посл. час дождь 10/9 900 м
[Sc]
+15.0 +11.1 77 +16 +16 1017.4 1012.5
В 4 45 км в посл. час дождь 10/3 600 м
[Sc As op]
+13.3 +11.8 91 +12 +12 1017.0 1012.1 0.2
ЮВ 2-3
{3}
45 км 10/9 1080 м
[Sc]
+13.0 +11.9 93 +12 +12 1016.1 1011.2
СВ 2-3
{4}
45 км 10/9 1500 м
[Sc]
+12.9 +11.6 92 +12 +12 1016.7 1011.8
Ю 2 35 км слаб. дождь 10/9 1020 м
[Sc]
+13.4 +11.9 91 +13 +13 1015.7 1010.8 0.0
Ю 2 25 км слаб. дождь 10/5 960 м
[Sc As op]
+13.4 +12.5 94 +13 +13 1015.7 1010.8
ЮЗ 3 11 км слаб. дождь 10/9 300 м
[Cu Sc As op]
+13.6 +12.9 96 +12 +12 1015.8 1010.9
ЮЗ 6 15 км слаб. дождь 10/9 200 м
[Cu Sc As op]
+13.1 +11.9 92 +11 +11 1015.9 1011.0 +12.7 +19.0 2
-6
{6}
35 км слаб. дождь н/о +13.5 +11.3 87 +12 +14 1016.3 1011.4
ЮЗ 4 25 км слаб. дождь 10/5 300 м
[Cu Sc As op]
+13.2 +11.6 90 +11 +12 1016.1 1011.2
ЮЗ 4 30 км слаб. дождь 10/9 300 м
[Cu Sc As op]
+13.5 +11.7 89 +12 +12 1016.5 1011.6 0.1
ЮЗ 4 18 км слаб. дождь 10/9 300 м
[Cu med, cong As op]
+14.0 +12.5 91 +12 +13 1016.5 1011.6
ЮЗ 4 24 км слаб. дождь 10/9 300 м
[Cu med, cong As op]
+14.7 +13.2 91 +13 +14 1016.5 1011.6
ЮЗ 5 40 км в посл. час дождь 10/9 300 м
[Cu Sc As op]
+15.2 +13.3 88 +14 +14 1016.5 1011.7 1
Ю 3 25 км в посл. час дождь 10/10 330 м
[Cu Sc]
+15.6 +13.8 89 +15 +15 1016.6 1011.8
ЮЗ 3 7000 м дождь 10/10 300 м
[Cu Sc]
+15.0 +13.5 91 +14 +14 1016.7 1011.9
ЮЗ 4 12 км в посл. час дождь 10/10 240 м
[Cu Sc]
+15.5 +13.9 90 +14 +14 1016.7 1011.9 0.1
Ю 3 45 км в посл. час дождь 10/10 300 м
[Cu Sc]
+16.5 +14.7 89 +16 +16 1016.3 1011.5
Ю 3 50 км 10/10 400 м
[Cu Sc]
+17.0 +14.6 86 +17 +17 1016.1 1011.3
Ю 2 3500 м слаб. морось {дождь} 10/10 200 м
[Cu Sc]
+16.2 +15.3 94 +16 +16 1016.1 1011.3 +13.0 +17.2 0.0
Ю 3 7000 м слаб. морось 10/10 120 м
[Frnb]
+16.1 +15.7 97 +16 +16 1016.0 1011.2
ЮВ 3 7000 м слаб. морось 10/10 120 м
[Sc]
+16.1 +15.7 97 +16 +16 1016.0 1011.2
Ю 5 12 км в посл. час зёрна 10/10 120 м
[Sc]
+16.1 +15.7 97 +15 +15 1016.0 1011.2 1
Ю 2 8000 м слаб. морось 10/10 60 м
[Sc]
+16.0 +15.6 97 +16 +16 1016.1 1011.3
Ю 2 9000 м слаб. морось 10/10 60 м
[Sc]
+15.9 +15.5 97 +16 +16 1015.8 1011.0
Ю 3 11 км в посл. час зёрна 10/10 50 м
[Sc]
+15.8 +15.4 97 +15 +15 1015.3 1010.5 1
Ю 3 9000 м в посл. час морось 10/10 90 м
[Sc]
+16.0 +15.8 99 +15 +15 1014.6 1009.8
Ю 3 8000 м в посл. час морось 10/10 90 м
[Sc]
+15.9 +15.7 99 +15 +15 1014.9 1010.1
ЮЗ 4 7000 м слаб. морось 10/10 90 м
[Frnb]
+16.3 +16.0 98 +16 +16 1014.4 1009.6 0.0
ЮЗ 4 7000 м дождь 10/9 90 м
[Frnb As op]
+16.4 +16.1 98 +16 +16 1014.4 1009.6
ЮЗ 5 11 км слаб. дождь 10/10 90 м
[Sc]
+16.6 +16.1 97 +16 +16 1014.1 1009.3
ЮЗ 6 12 км дождь {снег} 10/10 100 м
[Sc]
+16.9 +16.3 96 +16 +16 1013.9 1009.1 +15.7 +16.9 4
ЮЗ 5 40 км 10/10 360 м
[Cu Sc]
+18.2 +16.4 89 +18 +18 1013.6 1008.8
ЮЗ 6 17 км в посл. час дождь 10/10 270 м
[Sc]
+17.5 +16.4 93 +17 +17 1013.7 1008.9
ЮЗ 6 40 км в посл. час дождь 10/10 450 м
[Cu Sc]
+18.9 +16.4 85 +20 +20 1013.6 1008.8 0.0
ЮЗ 9 40 км в посл. час дождь 9/6 570 м
[Cu Sc Ac trans]
+20.2 +16.2 78 +22 +23 комфорт 1013.3 1008.6
З 9 45 км 8/8 800 м
[Sc diur, vesp Ac trans Ci fib]
+20.9 +14.7 68 +23 +24 комфорт 1013.5 1008.8
ЮЗ 8 45 км {дождь} 9/8 900 м
[Sc diur, vesp Ac lent Ci fib]
+21.6 +13.8 61 +24 +25 комфорт 1013.3 1008.6 0.0
З 6 40 км слаб. ливневой дождь 9/8 900 м
[Cu Sc Ac As]
+21.7 +15.2 67 +25 +26 комфорт 1013.1 1008.4
ЮЗ 7 45 км осадки на расстоянии 9/8 1020 м
[Cu Sc Ac As Ci sp]
+21.9 +14.4 62 +25 +26 комфорт 1013.1 1008.4
ЮЗ 7 45 км в посл. час ливневой дождь 9/6 900 м
[Cu Sc Ac As]
+22.3 +15.2 64 +26 +26 жарко 1012.8 1008.1 0.0
З 6 50 км осадки на расстоянии 9/5 960 м
[Cu Sc Ac As]
+22.6 +15.0 62 +26 +27 жарко 1012.5 1007.8
З 11 35 км слаб. дождь 9/6 800 м
[Cu Sc Ac As]
+20.6 +15.0 70 +23 +23 комфорт 1012.4 1007.7
З 4 55 км в посл. час дождь {ливн. дождь} 8/4 1500 м
[Sc Ac As Cs]
+21.5 +14.8 66 +25 +25 комфорт 1011.8 1007.1 +16.9 +22.8 0.0
З 2-2
{5}
60 км 4/0
[Ac trans Ci fib]
+19.1 +14.5 75 +21 +21 комфорт 1011.7 1006.9
З 2 60 км 8/1 1500 м
[Sc Ac trans Ci fib]
+21.2 +14.7 66 +24 +24 комфорт 1012.0 1007.3
Ю 1 55 км 5/1 1500 м
[Sc Ac As Ci fib]
+16.7 +14.7 88 +18 +18 1011.7 1006.9
В 2 50 км 9/1 1500 м
[Sc As trans]
+17.0 +15.1 89 +17 +17 1011.4 1006.6
ЮВ 2 50 км 8/1 1500 м
[Sc Ac As Ci fib]
+16.3 +15.3 94 +16 +16 1011.0 1006.2
ЮВ 2 50 км 9/1 1500 м
[Sc Ac trans]
+17.3 +15.3 88 +18 +18 1010.5 1005.7
Ю 4 50 км 9/6 1260 м
[Sc Ac trans]
+17.7 +15.0 84 +17 +17 1009.1 1004.3
Ю 2 50 км 9/4 2000 м
[Sc Ac trans]
+17.3 +15.4 89 +18 +18 1010.0 1005.2
Ю 3 50 км 9/9 1320 м
[Sc]
+18.1 +15.3 84 +18 +18 1008.6 1003.8
ЮЗ 6-8
{8}
50 км 9/9 1350 м
[Sc]
+18.8 +15.2 80 +19 +19 1008.1 1003.4
ЮЗ 6 55 км 10/9 600 м
[Cu Sc]
+18.5 +14.4 77 +19 +19 1008.4 1003.6
ЮЗ 6 55 км 10/9 600 м
[Sc]
+18.0 +14.1 78 +17 +18 1008.6 1003.8 +16.2 +21.7
ЮЗ 7 20 км в посл. час дождь 10/9 300 м
[Cu Sc]
+17.3 +15.5 89 +16 +16 1009.4 1004.6
ЮЗ 8-11
{12}
50 км дождь 10/9 540 м
[Sc]
+17.7 +14.3 80 +17 +17 1008.8 1004.0
ЮЗ 8 8000 м дождь 10/9 300 м
[Cu Sc]
+17.4 +16.2 93 +16 +16 1010.1 1005.3 0.1
З 8 4000 м ливневой дождь 9/9 240 м
[Cb calv]
+19.1 +15.8 81 +20 +20 1010.6 1005.9
СЗ 8 35 км в посл. час ливневой дождь 9/9 400 м
[Cu med, cong]
+16.4 +13.2 81 +15 +15 1012.5 1007.7
СЗ 6 40 км {ливн. дождь, дождь} 8/5 720 м
[Cu Sc Ac As Ci sp]
+18.0 +11.9 68 +17 +20 1013.7 1008.9 0.7
С 5 35 км слаб. ливневой дождь 9/8 500 м
[Cb calv Ac cuf]
+16.7 +12.8 78 +16 +17 1015.4 1010.6
СЗ 5 55 км 8/5 800 м
[Cu Sc Ac As Ci sp]
+19.3 +12.7 66 +20 +23 1014.2 1009.4
С 5 40 км в посл. час ливневой дождь 9/8 660 м
[Cb calv Ac cuf]
+16.8 +12.6 76 +16 +17 1016.3 1011.5 0.4
СЗ 5 50 км в посл. час ливневой дождь 8/6 660 м
[Cu Sc Ac cuf]
+17.3 +12.0 71 +17 +17 1016.9 1012.1
СЗ 5-6
{7}
50 км осадки на расстоянии 5/4 720 м
[Cu Sc Ac cuf]
+17.7 +11.4 67 +17 +18 1017.1 1012.3
СЗ 4 55 км {ливн. дождь} 5/4 600 м
[Cu Sc Ac trans Ci fib]
+17.2 +10.2 63 +17 +17 1017.6 1012.8 +16.3 +20.2 0.0
СЗ 2-3
{3}
60 км 5/4 840 м
[Cu Sc Ac trans Ci fib]
+15.1 +10.9 76 +15 +15 1018.7 1013.8
СЗ 3-4
{6}
55 км 4/3 840 м
[Cu Sc Ac trans]
+16.0 +10.5 70 +16 +16 1018.0 1013.2
С 1 50 км 4/3 840 м
[Cu Sc Ac trans]
+13.8 +10.6 81 +14 +14 1019.3 1014.4
С 2-3
{3}
50 км 1/1 1410 м
[Sc]
+13.2 +10.2 82 +12 +12 1020.0 1015.1
штиль 0-1
{2}
50 км местами туман поземный 1/1 1500 м
[Sc]
+10.7 +10.0 95 +10 +10 1020.5 1015.6
СВ 2 50 км местами туман поземный 1/1 1500 м
[Sc]
+9.4 +8.9 97 +8 +8 1021.2 1016.2
В 1-1
{1}
45 км туман поземный 4/1 1500 м
[Sc Ac trans Ci fib]
+8.6 +8.6 100 +8 +8 1021.9 1016.9
Ю 1-1
{2}
50 км туман поземный 1/0
[Ac trans]
+9.0 +8.8 99 +8 +8 1021.7 1016.7
СВ 1 40 км местами туман поземный 1/1 600 м
[Cu Sc]
+7.7 +7.4 98 +7 +7 1022.1 1017.1
СВ 1-1
{1}
35 км местами туман поземный 1/1 600 м
[Cu hum]
+7.7 +7.6 99 +7 +7 1022.4 1017.4
В 1-1
{1}
30 км 1/1 600 м
[Cu hum]
+9.9 +8.6 92 +9 +10 1023.0 1018.0
В 1 26 км 1/1 600 м
[Cu hum]
+12.8 +9.3 79 +13 +16 1023.3 1018.4 +7.3 +17.4
СЗ 2-3
{5}
35 км 4/4 800 м
[Cu med, cong]
+16.0 +8.8 62 +16 +21 1024.1 1019.2
СЗ 1-1
{2}
28 км 1/1 600 м
[Cu hum]
+14.6 +9.7 72 +15 +21 1023.8 1018.9
СЗ 2 50 км 3/3 1020 м
[Cu med, cong]
+16.8 +7.9 56 +17 +26 1024.3 1019.4
СЗ 3-5
{5}
55 км 5/5 1200 м
[Cu med, cong]
+16.9 +7.8 55 +17 +23 1024.7 1019.8
З 3 55 км 6/6 1200 м
[Cu Sc]
+17.5 +8.1 54 +18 +23 1024.7 1019.8
СЗ 3 55 км 4/4 1440 м
[Cu Sc]
+18.9 +7.6 48 +20 +28 1024.7 1019.9
СЗ 3 55 км 6/6 1500 м
[Cu Sc]
+20.2 +8.4 47 +22 +26 комфорт 1024.7 1019.9
ЮЗ 4-6
{8}
55 км 4/4 1500 м
[Cu med, cong]
+20.7 +8.7 46 +22 +28 комфорт 1024.5 1019.7
СЗ 5 55 км 9/9 1320 м
[Cu Sc]
+18.5 +9.8 57 +19 +19 1024.7 1019.9
СЗ 3 55 км 8/5 1320 м
[Cu Sc Ac trans]
+18.9 +9.5 54 +20 +21 1025.0 1020.2
СЗ 3 55 км 9/5 1260 м
[Cu Sc Ac trans]
+18.9 +8.9 52 +20 +20 1025.1 1020.3
СЗ 3 55 км 9/9 1000 м
[Cu Sc Ac trans]
+17.8 +9.4 58 +18 +18 1025.4 1020.5 +13.0 +20.9
СЗ 2-2
{4}
50 км 4/1 1500 м
[Sc Ac As]
+16.2 +10.2 68 +16 +16 1026.0 1021.1
СЗ 3 50 км 8/6 1500 м
[Sc diur, vesp Ac trans]
+17.8 +10.4 62 +18 +18 1025.6 1020.7
С 2 55 км 1/1 1500 м
[Sc Ac trans]
+14.4 +9.4 72 +14 +14 1026.5 1021.6
С 2-2
{3}
55 км 1/1 1500 м
[Sc Ac trans]
+13.2 +9.7 79 +13 +13 1026.7 1021.8
В 1-1
{2}
50 км 1/1 1500 м
[Sc]
+10.9 +9.6 92 +11 +11 1026.9 1021.9
СВ 1 50 км 1/1 1500 м
[Sc]
+9.8 +9.3 97 +9 +9 1027.2 1022.2
СВ 1-1
{1}
50 км местами туман поземный 1/1 1500 м
[Sc]
+8.6 +8.2 97 +8 +8 1027.0 1022.0
СВ 1-1
{1}
50 км 1/1 1500 м
[Sc]
+8.9 +8.4 97 +8 +8 1027.2 1022.2
штиль 0 50 км местами туман поземный 1/1 1500 м
[Sc]
+8.3 +8.1 99 +7 +7 1027.1 1022.1
ЮЗ 1-1
{1}
40 км местами туман поземный 1/1 1500 м
[Sc]
+8.3 +8.1 99 +7 +7 1027.4 1022.4
СВ 1-1
{1}
30 км 1/1 600 м
[Cu Sc]
+8.8 +7.8 93 +8 +9 1027.7 1022.7
С 2 30 км 1/1 600 м
[Cu hum]
+12.9 +10.3 84 +12 +15 1028.0 1023.1 +8.0 +18.0
С 3-4
{4}
50 км 1/1 720 м
[Cu hum]
+17.1 +10.2 64 +17 +24 1028.7 1023.8
С 3-4
{4}
35 км 1/1 600 м
[Cu hum]
+15.1 +10.8 75 +14 +19 1028.4 1023.5
СВ 3 55 км 3/3 1020 м
[Cu med, cong]
+18.1 +8.3 53 +18 +26 1028.5 1023.6
СЗ 2-4
{6}
55 км 4/4 1260 м
[Cu med, cong]
+18.4 +9.5 56 +19 +28 1028.4 1023.5
СЗ 2-4
{6}
55 км 4/4 1440 м
[Cu Sc]
+18.6 +7.8 49 +20 +29 1028.5 1023.6
С 3 60 км 3/3 1500 м
[Cu hum]
+19.7 +6.9 43 +21 +30 комфорт 1028.2 1023.4
СВ 4-7
{7}
60 км 3/3 1500 м
[Cu hum]
+21.6 +7.4 40 +23 +29 комфорт 1027.5 1022.7
СЗ 3-6
{6}
60 км 3/3 1500 м
[Cu hum]
+21.2 +6.7 39 +22 +31 комфорт 1027.7 1022.9
В 3 60 км 1/1 1500 м
[Cu hum Ci fib]
+21.4 +6.7 39 +22 +29 комфорт 1027.1 1022.3
СВ 4 65 км 4/1 1500 м
[Cu hum Ci fib]
+22.3 +6.3 35 +23 +26 комфорт 1026.7 1021.9
СВ 3 65 км 8/1 1500 м
[Cu hum Ci sp]
+20.8 +7.2 41 +22 +24 комфорт 1026.5 1021.7
С 3 65 км 8/1 1500 м
[Cu hum Ci fib]
+21.3 +7.9 42 +22 +23 комфорт 1026.3 1021.5 +12.9 +22.8
С 2-3
{3}
50 км 4/0
[Ci sp]
+17.6 +9.6 59 +18 +18 1026.4 1021.5
С 2 60 км 8/1 1500 м
[Cu hum Ci fib]
+20.3 +7.9 45 +22 +22 комфорт 1026.1 1021.3
С 2 55 км 4/0
[Ci sp]
+16.2 +9.6 65 +16 +16 1026.5 1021.6
С 2-3
{3}
55 км 5/0
[Ci sp]
+14.8 +10.0 73 +15 +15 1026.3 1021.4
С 1-2
{3}
60 км 4/0
[Ci sp]
+12.5 +9.7 83 +13 +13 1026.2 1021.3
С 1 60 км 4/0
[Ci fib]
+11.4 +9.5 88 +11 +11 1026.1 1021.1
С 3-4
{4}
60 км 3/0
[Ci fib]
+11.1 +9.3 89 +9 +9 1025.6 1020.6
С 2-2
{2}
55 км 5/0
[Ci fib]
+11.6 +9.5 87 +10 +10 1026.0 1021.0
СВ 1 60 км 6/0
[Ci sp]
+10.1 +8.9 92 +10 +10 1025.2 1020.2
СВ 2-2
{2}
60 км 5/0
[Ci sp]
+10.1 +9.0 93 +8 +9 1025.0 1020.0
СВ 2-2
{3}
55 км 6/0
[Ci sp]
+10.4 +9.2 92 +9 +10 1025.0 1020.0
СВ 1 55 км 6/0
[Ci sp]
+12.5 +9.5 82 +13 +15 1025.0 1020.1 +8.8 +21.7
В 1-2
{3}
55 км 4/0
[Ci fib]
+19.4 +7.8 47 +21 +31 комфорт 1024.5 1019.7
В 1-2
{2}
55 км 4/0
[Ci fib]
+16.9 +8.7 58 +18 +24 1025.0 1020.1
Местоположение метеостанции Дюссельдорф (Германия): широта 51.28 долгота 6.78 высота над уровнем моря 45 м.
В архиве по умолчанию представлена погода в Дюссельдорфе за последнюю неделю. Архивные данные за месяц целиком и за предыдущие месяцы, начиная с января 2011 года, Вы можете получить, выбрав интересующий диапазон дат из раскрывающегося списка и нажав кнопку "Найти!".
*Определитесь, кто Вы:
Внимание! Время в таблицах - всемирное. Для получения местного времени необходимо прибавить поправку, которая равна 1 ч.
Смотрите также архив погоды в соседних городах и на ближайших метеорологических станциях:
Партнеры нашего сайта:      
Пояснения к столбцам:
  • Ветер - указаны скорость ветра в м/с - средняя за 10 мин, порывы в срок и между сроками (в фигурных скобках) и направление, откуда дует ветер: С - северный,
  • СВ - северо-восточный, В - восточный, ЮВ - юго-восточный, Ю - южный, ЮЗ - юго-западный, З - западный, СЗ - северо-западный.
  • Видимость - горизонтальная дальность видимости в метрах или километрах. При видимости от 1 до 10 км при отсутствии осадков обычно наблюдается дымка, при ухудшении видимости до 1 км и менее - туман. В сухую погоду видимость может ухудшаться дымом, пылью или мглою.
  • Явления - указаны атмосферные явления, наблюдавшиеся в срок или в последний час перед сроком; фигурными скобками обозначены явления, наблюдавшиеся между сроками (за 1-3 часа до срока); квадратными скобками обозначены град или гололедные отложения с указанием их диаметра в мм.
  • Облачность - указаны через наклонную черту общая и нижняя облачность в баллах и высота нижней границы облаков в метрах; квадратными скобками обозначены формы облаков: Ci - перистые, Cs - перисто-слоистые, Cc - перисто-кучевые, Ac - высококучевые, As - высокослоистые, Sc - слоисто-кучевые, Ns - слоисто-дождевые, Cu - кучевые, Cb - кучево-дождевые. Подробнее классификацию облаков см. в Атласе облаков (PDF).
  • T - Температура воздуха - температура, измеренная на высоте 2 м над землей.
  • Td - Температура точки росы - температура, при понижении до которой содержащийся в воздухе водяной пар достигнет насыщения.
  • f - Относительная влажность воздуха - влажноcть воздуха, измеренная на высоте 2 м над землей.
  • Te - Эффективная температура - температура, которую ощущает одетый по сезону человек в тени. Характеристика душности погоды. При расчете учитывается влияние влажности воздуха и скорости ветра на теплоощущения человека.
  • Tes - Эффективная температура на солнце - температура, которую ощущает человек, с поправкой на солнечный нагрев. Характеристика знойности погоды. Зависит от высоты солнца над горизонтом, облачности и скорости ветра. Ночью, в пасмурную погоду, а также при ветре 12 м/с и более поправка равна нулю.
  • P - Атмосферное давление - приведенное к уровню моря атмосферное давление.
  • Po - Атмосферное давление - измеренное на уровне метеостанции атмосферное давление.
  • Tmin - Минимальная температура - минимум температуры воздуха на высоте 2 м над землей.
  • Tmax - Максимальная температура - максимум температуры воздуха на высоте 2 м над землей.
  • R - Количество осадков - Количество выпавших осадков за период времени, мм. При наведении курсора мыши на число - период времени, за который выпало указанное количество осадков.
  • R24 - Количество осадков - Количество выпавших осадков за 24 часа, мм.
  • S - Снежный покров - Высота снежного покрова, см. При наведении курсора мыши на число - состояние снежного покрова и степень покрытия местности в баллах.